Regional Weather Roundup
Issued by NWS

Home | Current Version | Previous Version | Graphics & Text | Print | Product List | Glossary On
Versions: 1 2 3 4 5 6 7 8 9 10 11 12 13 14 15 16 17 18 19 20 21 22 23 24 25 26 27 28 29 30 31 32 33 34 35 36 37 38 39 40 41 42 43 44 45 46 47 48 49 50
000
ASUS43 KLMK 230502
RWRKY
KENTUCKY REGIONAL WEATHER ROUNDUP
NATIONAL WEATHER SERVICE LOUISVILLE KY
100 AM EDT TUE SEP 23 2014

NOTE "FAIR" INDICATES FEW OR NO CLOUDS BELOW 12,000 FEET
WITH NO SIGNIFICANT WEATHER AND/OR OBSTRUCTIONS TO VISIBILITY.

KYZ001>023-026-027-061>063-070>075-230600-
WESTERN AND SOUTH CENTRAL KENTUCKY

CITY           SKY/WX    TMP DP  RH WIND       PRES   REMARKS
PADUCAH        CLEAR     51  47  86 CALM      30.24S
HENDERSON      CLEAR     48  43  81 CALM      30.26F
OWENSBORO      CLEAR     57  50  78 NE5       30.26S
HOPKINSVILLE   CLEAR     50  46  85 NE6       30.23F
BOWLING GREEN  CLEAR    N/A N/A N/A CALM      30.25S
GLASGOW        CLEAR     50  44  79 CALM      30.24S
$$

KYZ024-025-028>034-038-045-046-053-230600-
NORTH CENTRAL KENTUCKY

CITY           SKY/WX    TMP DP  RH WIND       PRES   REMARKS
LOUISVILLE/SDF CLEAR     56  48  74 CALM      30.27S
LOUISVILLE/LOU CLEAR     52  47  83 CALM      30.28R
FORT KNOX      CLEAR     51  47  84 NE5       30.25F
$$

KYZ035>037-039>044-047>052-055>060-089>105-230600-
NORTHEAST KENTUCKY

CITY           SKY/WX    TMP DP  RH WIND       PRES   REMARKS
LEXINGTON      CLEAR     51  43  74 N6        30.27S
COVINGTON      CLEAR     50  42  74 CALM      30.28S
FRANKFORT      CLEAR     46  43  89 CALM      30.27S
$$

KYZ054-064>069-076>088-106>120-230600-
SOUTHEAST KENTUCKY

CITY           SKY/WX    TMP DP  RH WIND       PRES   REMARKS
JACKSON        CLEAR     54  45  71 CALM      30.26S
LONDON         CLEAR     50  46  86 CALM      30.26S
SOMERSET       CLEAR     46  46 100 CALM      30.27S
MIDDLESBORO    CLEAR     49  48  99 CALM      30.26S
MONTICELLO     CLEAR     45  44  96 CALM      30.26F
$$




USA.gov is the U.S. government's official web portal to all federal, state and local government web resources and services.